This is the latest recevied weather packets stored in our database for station/object KC9VAF. If no packets are shown the sender has not sent any weather packets the latest 10 day(s).
| Time | Temp. | Humidity | Pressure | Rain* | Wind** | Luminosity | Snow |
|---|---|---|---|---|---|---|---|
| 1778249699 | 12.22° C | 64% | 1011.7 hPa | 0 mm | - | 426 W/m² | - |
| 1778249397 | 11.67° C | 64% | 1011.8 hPa | 0 mm | - | 358 W/m² | - |
| 1778249094 | 11.67° C | 68% | 1011.7 hPa | 0 mm | - | 318 W/m² | - |
| 1778248789 | 11.11° C | 68% | 1011.7 hPa | 0 mm | - | 310 W/m² | - |
| 1778248486 | 10.56° C | 69% | 1011.8 hPa | 0 mm | - | 177 W/m² | - |
| 1778248183 | 10.56° C | 70% | 1012 hPa | 0 mm | - | 129 W/m² | - |
| 1778247879 | 10° C | 71% | 1012.1 hPa | 0 mm | - | 77 W/m² | - |
| 1778247576 | 10° C | 72% | 1011.9 hPa | 0 mm | - | 158 W/m² | - |
| 1778247274 | 9.44° C | 74% | 1012.1 hPa | 0 mm | - | 95 W/m² | - |
| 1778246971 | 9.44° C | 74% | 1012.1 hPa | 0 mm | - | 98 W/m² | - |
| 1778246669 | 8.89° C | 75% | 1012 hPa | 0 mm | - | 69 W/m² | - |
| 1778246365 | 8.89° C | 76% | 1012.2 hPa | 0 mm | - | 97 W/m² | - |
| 1778246060 | 8.89° C | 76% | 1012.2 hPa | 0 mm | - | 88 W/m² | - |
| 1778245758 | 8.89° C | 76% | 1012.1 hPa | 0 mm | - | 102 W/m² | - |
| 1778245455 | 8.33° C | 77% | 1012.1 hPa | 0 mm | - | 92 W/m² | - |
| 1778245150 | 7.78° C | 79% | 1012.1 hPa | 0 mm | - | 112 W/m² | - |
| 1778244846 | 7.22° C | 79% | 1012.2 hPa | 0 mm | - | 75 W/m² | - |
| 1778244545 | 6.67° C | 81% | 1012.1 hPa | 0 mm | - | 144 W/m² | - |
| 1778244242 | 6.67° C | 82% | 1012 hPa | 0 mm | - | 65 W/m² | - |
| 1778243940 | 6.11° C | 83% | 1012.2 hPa | 0 mm | - | 94 W/m² | - |
| 1778243638 | 5.56° C | 85% | 1012.2 hPa | 0 mm | - | 67 W/m² | - |
| 1778243334 | 5° C | 86% | 1012.3 hPa | 0 mm | - | 62 W/m² | - |
| 1778243031 | 5° C | 86% | 1012.2 hPa | 0 mm | - | 73 W/m² | - |
| 1778242728 | 4.44° C | 87% | 1012.2 hPa | 0 mm | - | 54 W/m² | - |
| 1778242426 | 3.89° C | 89% | 1012.1 hPa | 0 mm | - | 48 W/m² | - |
* Rain latest hour (hover to see other rain measurements)
** Current wind speed in m/s (hover to see current wind gust speed)